This is the latest recevied weather packets stored in our database for station/object F5LKO-13. If no packets are shown the sender has not sent any weather packets the latest 10 day(s).
| Time | Temp. | Humidity | Pressure | Rain* | Wind** | Luminosity | Snow |
|---|---|---|---|---|---|---|---|
| 1777140871 | 16.67° C | 99% | 1021.8 hPa | 0 mm | - | 0 W/m² | - |
| 1777140556 | 16.67° C | 99% | 1021.7 hPa | 0 mm | - | 0 W/m² | - |
| 1777140250 | 16.67° C | 99% | 1021.8 hPa | 0 mm | - | 0 W/m² | - |
| 1777139944 | 17.22° C | 99% | 1021.7 hPa | 0 mm | - | 0 W/m² | - |
| 1777139637 | 17.22° C | 99% | 1021.7 hPa | 0 mm | - | 0 W/m² | - |
| 1777139331 | 17.22° C | 99% | 1021.7 hPa | 0 mm | - | 0 W/m² | - |
| 1777139033 | 17.78° C | 99% | 1021.6 hPa | 0 mm | - | 0 W/m² | - |
| 1777138718 | 17.78° C | 99% | 1021.7 hPa | 0 mm | - | 0 W/m² | - |
| 1777138412 | 17.78° C | 99% | 1021.6 hPa | 0 mm | - | 1 W/m² | - |
| 1777138107 | 17.78° C | 99% | 1021.6 hPa | 0 mm | - | 1 W/m² | - |
| 1777137801 | 18.33° C | 99% | 1021.5 hPa | 0 mm | - | 0 W/m² | - |
| 1777137495 | 18.33° C | 99% | 1021.4 hPa | 0 mm | - | 1 W/m² | - |
| 1777137198 | 18.33° C | 99% | 1021.4 hPa | 0 mm | - | 2 W/m² | - |
| 1777136883 | 17.78° C | 99% | 1021.3 hPa | 0 mm | - | 1 W/m² | - |
| 1777136577 | 18.33° C | 99% | 1021.3 hPa | 0 mm | - | 1 W/m² | - |
| 1777136270 | 18.33° C | 99% | 1021.2 hPa | 0 mm | - | 1 W/m² | - |
| 1777135964 | 18.33° C | 99% | 1021.1 hPa | 0 mm | - | 1 W/m² | - |
| 1777135658 | 18.89° C | 99% | 1021.1 hPa | 0 mm | - | 1 W/m² | - |
| 1777135360 | 18.89° C | 99% | 1021.1 hPa | 0 mm | - | 2 W/m² | - |
| 1777135046 | 19.44° C | 99% | 1021.1 hPa | 0 mm | - | 1 W/m² | - |
| 1777134740 | 20.56° C | 99% | 1021.1 hPa | 0 mm | - | 1 W/m² | - |
| 1777134435 | 21.11° C | 99% | 1021.2 hPa | 0 mm | - | 5 W/m² | - |
| 1777134129 | 21.11° C | 99% | 1021.1 hPa | 0 mm | - | 7 W/m² | - |
| 1777133823 | 20° C | 99% | 1021.2 hPa | 0 mm | - | 10 W/m² | - |
| 1777133525 | 19.44° C | 99% | 1021.3 hPa | 0 mm | - | 11 W/m² | - |
* Rain latest hour (hover to see other rain measurements)
** Current wind speed in m/s (hover to see current wind gust speed)